Theta_e
313 314 316 320 322 317 312 312 312 313 313 314 316 315 315 315 314 314 314 312 312 311 311 311 310 309 310 311 317 321 322 321
316 315 316 318 322 319 313 310 311 311 310 310 309 309 308 309 312 311 311 309 310 309 308 309 309 308 309 310 310 316 315 319
312 313 314 315 319 321 318 315 313 313 313 311 311 309 309 308 309 309 308 308 308 307 308 307 308 307 308 309 310 307 307 310
311 311 313 314 319 321 318 316 315 313 312 311 310 309 307 305 305 305 306 305 305 306 306 307 307 307 305 307 308 307 304 306
311 311 312 313 319 322 321 317 314 312 311 308 307 305 303 304 304 304 304 304 303 303 305 306 306 306 305 305 306 307 306 303
311 311 311 312 316 320 321 319 316 313 312 310 306 305 303 303 304 304 304 303 303 303 304 304 305 304 304 305 306 305 305 304
311 311 311 311 313 317 319 318 315 314 312 310 306 303 302 301 301 301 302 302 301 302 302 303 303 303 303 304 305 305 304 304
310 309 308 309 310 312 315 315 313 312 312 309 307 305 304 303 302 301 301 302 302 303 303 303 302 303 303 304 304 303 303 303
310 309 309 308 309 310 312 312 311 312 311 309 307 306 304 304 304 304 303 303 304 304 304 303 303 302 303 303 302 302 303 302
310 310 309 309 309 309 310 310 310 310 310 309 307 306 305 304 305 306 304 305 304 304 304 303 303 302 302 301 301 301 301 301
310 310 310 309 310 310 311 310 309 309 309 308 306 305 305 305 305 304 305 304 304 304 304 303 302 302 301 301 300 300 300 300
310 310 310 309 309 309 309 309 308 308 308 307 306 305 305 305 304 304 304 305 304 304 303 302 301 301 301 300 299 299 298 299
310 310 309 308 308 308 308 308 307 307 307 306 305 304 304 303 303 304 305 303 304 304 303 302 301 300 300 298 297 297 297 297
309 308 307 307 307 307 307 307 307 307 306 305 304 302 302 303 303 304 304 304 304 303 303 301 300 300 299 298 297 296 296 296
307 307 307 307 307 307 307 306 307 307 306 304 303 303 303 303 304 304 303 304 303 303 303 302 301 299 298 297 296 296 296 296
306 306 307 307 306 307 306 306 306 306 304 303 304 304 304 303 303 303 303 303 303 302 302 302 301 300 297 298 297 297 296 295
306 306 307 306 306 306 306 306 305 305 304 303 304 304 303 303 303 303 303 303 302 302 302 301 301 297 288 290 291 297 295 295
305 306 307 307 307 307 306 306 306 304 304 304 304 304 302 302 302 302 302 302 303 302 302 301 301 300 290 290 289 297 296 295
306 307 308 309 308 308 308 307 305 304 303 303 303 303 302 302 302 301 302 303 302 302 302 302 301 299 290 290 289 296 297 295
Wind_Speed
12 11 11 12 11 10 9 6 7 10 8 5 5 6 6 6 7 7 8 8 9 6 7 7 6 6 7 8 6 5 5 4
11 10 10 9 11 13 12 8 6 7 8 6 4 6 6 5 7 9 9 9 9 7 6 6 8 9 9 7 7 6 6 4
13 12 11 10 12 13 12 11 9 6 5 5 5 5 6 6 6 8 9 10 9 8 7 7 9 8 10 10 8 6 8 7
15 14 12 11 14 14 13 13 11 5 7 7 6 8 6 5 6 7 8 10 9 8 9 9 9 8 9 10 10 10 6 8
15 15 14 14 13 13 12 13 11 9 8 7 7 5 6 5 6 7 8 8 9 10 10 10 10 8 9 9 8 10 9 8
18 17 15 13 12 12 11 11 11 11 9 7 5 6 6 6 6 9 9 8 9 10 11 10 10 8 9 10 9 10 8 7
18 17 15 14 13 13 13 13 12 11 10 9 9 10 9 7 7 6 5 6 6 9 10 9 9 8 8 8 9 10 9 8
20 20 18 16 15 14 13 14 13 13 11 10 10 11 11 11 9 7 7 6 6 7 8 8 7 8 7 8 7 8 9 8
22 22 19 18 17 16 15 16 15 13 12 11 10 11 8 8 7 7 6 6 6 7 7 8 8 8 7 6 5 6 7 6
24 22 20 19 18 17 16 16 15 15 13 11 11 9 9 8 10 7 6 7 7 7 7 8 7 7 7 5 5 6 6 5
23 22 21 18 18 16 16 15 15 15 14 12 10 10 9 9 9 9 7 7 7 7 7 7 6 6 6 5 5 6 6 5
23 21 20 19 18 17 16 15 15 15 13 12 12 10 10 9 8 9 8 7 7 7 7 6 6 6 6 6 6 5 6 6
21 21 21 20 19 17 17 15 15 14 13 13 12 11 11 10 9 10 9 8 7 7 7 6 5 5 6 6 6 6 7 7
20 21 21 20 20 18 17 16 15 15 14 13 13 12 12 11 11 10 9 9 7 7 7 6 6 5 5 5 5 6 6 6
21 22 22 21 20 19 17 16 15 15 15 15 14 13 12 11 11 10 9 9 8 7 7 6 5 5 4 4 4 4 4 5
22 23 22 22 21 19 18 17 17 16 15 15 14 13 12 11 11 11 10 9 8 7 7 6 6 4 2 2 2 2 4 5
22 23 24 24 23 21 19 18 18 17 16 15 14 14 13 12 12 11 10 10 9 8 7 7 6 4 8 2 6 3 4 5
24 24 24 23 23 22 21 20 18 18 16 15 15 14 14 13 12 12 11 10 9 8 7 7 6 6 8 6 2 3 4 5
21 20 21 22 22 22 20 19 19 18 17 16 16 15 14 14 13 12 11 10 9 8 8 7 6 5 10 7 5 6 4 4
Wind_Direction
151 163 159 150 130 115 112 101 114 103 93 97 90 88 76 65 62 55 40 48 42 40 52 42 42 48 46 40 41 57 31 58
158 163 163 163 147 144 134 129 149 151 136 114 100 92 80 73 72 59 56 51 49 39 52 52 59 55 49 42 57 52 55 24
167 173 174 179 173 168 165 162 164 145 121 129 96 106 86 84 79 71 60 60 52 56 48 54 46 60 53 47 38 67 57 31
173 177 178 178 175 181 171 166 149 132 114 118 127 108 129 128 106 85 69 60 62 61 57 54 58 53 52 42 42 33 61 60
180 182 182 185 178 177 173 161 150 147 153 137 155 139 132 117 106 97 83 75 67 63 58 56 51 53 49 47 44 47 32 37
184 186 182 185 170 176 179 163 164 158 153 145 146 123 137 122 118 113 107 91 75 68 61 57 54 52 56 50 47 49 53 50
186 181 174 175 178 174 177 178 170 163 160 159 147 149 138 132 126 126 110 94 89 72 69 67 58 60 51 53 54 52 51 49
186 179 179 173 174 173 178 181 170 169 169 156 156 152 148 151 151 130 136 122 101 86 78 69 68 62 56 54 53 53 49 47
192 181 181 176 176 175 176 179 172 168 167 158 159 157 156 146 140 136 118 114 109 103 90 83 76 66 59 56 59 54 49 46
192 181 182 178 178 178 179 179 172 169 165 158 161 163 153 140 129 127 130 124 123 118 100 88 77 70 66 69 59 53 47 39
190 185 181 178 177 172 176 179 172 167 162 164 162 158 151 144 140 134 141 126 128 136 115 99 90 78 71 64 67 51 43 34
187 183 177 177 173 172 176 178 172 167 167 163 159 157 152 152 146 141 144 140 148 144 134 127 110 88 67 69 68 48 37 33
183 181 176 175 173 173 174 175 172 169 167 161 161 157 161 159 155 152 149 154 159 150 146 136 122 96 73 64 56 39 31 25
174 179 180 177 175 174 172 175 174 169 166 163 160 166 170 167 162 156 162 163 160 151 156 151 141 110 82 70 55 39 31 17
177 180 182 178 176 173 173 175 174 171 171 172 170 173 172 167 161 163 166 170 168 164 160 151 141 124 98 70 56 34 21 20
183 183 182 179 176 175 175 174 175 175 176 176 173 172 171 165 166 168 169 176 173 169 161 158 154 154 97 73 73 25 9 3
184 186 184 182 178 176 175 175 176 176 179 180 174 173 171 171 173 173 172 178 175 173 172 171 174 170 115 86 324 7 355 350
186 188 187 183 179 176 176 176 174 179 179 180 177 176 176 176 176 177 181 181 174 180 182 182 184 156 161 171 265 304 321 348
186 188 187 185 180 179 174 173 177 180 181 182 180 180 181 180 180 181 181 180 183 185 186 189 186 153 168 182 224 273 295 330